Regional Weather Roundup
Issued by NWS Wakefield, VA

Home | Current Version | Previous Version | Graphics & Text | Print | Product List | Glossary On
Versions: 1 2 3 4 5 6 7 8 9 10 11 12 13 14 15 16 17 18 19 20 21 22 23 24 25 26 27
000
ASUS41 KAKQ 192210
RWRAKQ

REGIONAL WEATHER ROUNDUP
NATIONAL WEATHER SERVICE WAKEFIELD VA
600 PM EDT SAT APR 19 2014

Note: "fair" indicates few or no clouds below 12,000 feet with no
significant weather and/or obstructions to visibility. * = Denotes
station may not report precipitation (e.g., rain,snow,etc.),
thunder or fog.

VAZ042-051-052>054-056-192300-
NORTHERN VIRGINIA

CITY           SKY/WX    TMP DP  RH WIND       PRES   REMARKS
WASH NATIONAL  CLOUDY    68  32  26 N8        30.23R
DULLES         CLOUDY    65  32  29 NE14      30.23S
FORT BELVOIR   CLOUDY    69  26  20 N3        30.23R
QUANTICO       CLOUDY    63  47  55 S8        30.23S
FREDERICKSBRG* CLOUDY    66  39  37 E7        30.22S
STAFFORD*      CLOUDY    65  41  40 CALM      30.26S
WARRENTON      CLOUDY    67  46  45 E5        30.22S
CULPEPER*      CLOUDY    70  32  24 CALM      30.23S
MANASSAS*      CLOUDY    66  34  30 N8        30.23R
LEESBURG*      CLOUDY    66  36  32 NE8G16    30.25S
WINCHESTER     CLOUDY    64  32  29 CALM      30.24S
$$

VAZ048-049-060>072-079>083-192300-
CENTRAL AND SOUTH CENTRAL VIRGINIA...AND NORTH CENTRAL NORTH CAROLINA

CITY           SKY/WX    TMP DP  RH WIND       PRES   REMARKS
RICHMOND       CLOUDY    63  37  38 NE9       30.22S
CHESTERFIELD*  NOT AVBL
HANOVER        CLOUDY    63  38  39 VRB5      30.23F
TAPPAHANNOCK*  CLOUDY    63  37  37 NE5       30.23S
CHARLOTTSVILLE CLOUDY    64  40  41 NE8       30.22S
ORANGE*        CLOUDY    64  37  36 N6        30.24S
LOUISA*        CLOUDY    64  41  42 E3        30.21F
FARMVILLE*     CLOUDY    63  39  42 NE9       30.19S
SOUTH HILL*    CLOUDY    57  46  67 CALM      30.25R
ROANOKE RAPIDS CLOUDY    54  45  71 NE9G16    30.20F
RALEIGH        CLOUDY    53  44  71 NE8       30.19R
$$

VAZ088>098-192300-
SOUTHEAST VIRGINIA

CITY           SKY/WX    TMP DP  RH WIND       PRES   REMARKS
NORFOLK        CLOUDY    50  41  71 NE10G20   30.22R
VIRGINIA BEACH CLOUDY    49  40  71 NE10      30.21R
NORFOLK NAVAL  CLOUDY    52  40  63 NE12      30.24R
WEST POINT*    CLOUDY    64  39  41 NE8       30.24S
NEWPORT NEWS   CLOUDY    58  43  57 NE8       30.23R
LANGLEY AFB    CLOUDY    53  46  76 NE9       30.23R
FORT EUSTIS    CLOUDY    56  46  66 NE7       30.21R
WILLIAMSBURG*    N/A     61  48  63 CALM      30.23R
FRANKLIN*      CLOUDY    55  46  71 E8        30.22R
WAKEFIELD      CLOUDY    57  44  62 CALM      30.22S
$$

VAZ020-022-025-037-045-192300-
WESTERN AND SOUTHWEST VIRGINIA

CITY           SKY/WX    TMP DP  RH WIND       PRES   REMARKS
STAUNTON*      CLOUDY    62  38  39 E7        30.24S
HOT SPRINGS VA CLOUDY    54  37  54 E9        30.29S
LYNCHBURG      CLOUDY    65  41  41 NE12      30.22F
DANVILLE       CLOUDY    62  42  47 NE12      30.19F
MARTINSVILLE   CLOUDY    63  40  43 NE8       30.21S
ROANOKE        CLOUDY    62  39  42 SE7       30.22S
BLACKSBURG     CLOUDY    61  43  51 E13       30.23S
DUBLIN*        CLOUDY    61  37  41 E10       30.21R
MARION*        CLOUDY    61  33  36 E10       30.21S
HILLSVILLE*    CLOUDY    59  30  33 NE8G18    30.23R
RICHLANDS*     CLOUDY    67  33  27 SE6       30.18R
WISE*          CLOUDY    64  30  27 N14G20    30.20R
ABINGDON*      CLOUDY    67  33  27 SE10      30.16R
$$

MDZ021>025-VAZ099-100-192300-
SOUTHERN MARYLAND AND THE DELMARVA PENINSULA

CITY           SKY/WX    TMP DP  RH WIND       PRES   REMARKS
PATUXENT RIVER CLOUDY    63  40  42 N7        30.22S
BAY BRIDGE APT CLOUDY    63  36  36 N5        30.24R
LEONARDTOWN    CLOUDY    63  36  36 CALM      30.24F
DOVER          CLOUDY    57  46  68 E9        30.21R
GEORGETOWN     CLOUDY    58  41  53 E10       30.25R
EASTON         CLOUDY    66  37  34 N6        30.26R
CAMBRIDGE      CLOUDY    64  41  42 N5        30.22S
SALISBURY      CLOUDY    61  31  32 E10       30.23S
OCEAN CITY     CLOUDY    54  36  50 NE7       30.25S
WALLOPS ISLAND CLOUDY    56  40  55 E13       30.24S
ACCOMACK*      CLOUDY    55  37  50 NE13      30.22S
$$

NCZ012>017-030>032-192300-
EASTERN NORTH CAROLINA

CITY           SKY/WX    TMP DP  RH WIND       PRES   REMARKS
ELIZABETH CITY CLOUDY    50  43  77 N13       30.19R
AHOSKIE*       CLOUDY    51  41  70 NE12      30.21S
EDENTON*       DRIZZLE   49  43  78 N8        30.18S
CURRITUCK*     CLOUDY    49  43  78 N12       30.20S
KILL DEVIL HLS CLOUDY    49  46  91 N12G20    30.15R
MANTEO         CLOUDY    49  46  89 NE16G22   30.16R
CAPE HATTERAS  LGT RAIN  52  52 100 NE13G26   30.10R FOG
GOLDSBORO      CLOUDY    50  48  93 N6        30.15R
WASHINGTON     CLOUDY    53  48  85 N9        30.15S
GREENVILLE     CLOUDY    52  43  71 NE12G20   30.17F
NEW BERN       CLOUDY    52  48  86 NE14      30.11S
WILMINGTON     LGT RAIN  56  52  86 NE21G29   30.05R FOG
$$

VAZ048-192300-
ELSEWHERE

CITY           SKY/WX    TMP DP  RH WIND       PRES   REMARKS
HARRISBURG PA  PTSUNNY   65  23  20 N9        30.26R
BALTIMORE      CLOUDY    65  32  29 E9        30.23R
ANNAPOLIS      CLOUDY    64  32  30 NE8       30.23S
ANDREWS AFB    CLOUDY    65  34  32 E7        30.23R
WILMINGTON DE  PTSUNNY   65  24  21 N9        30.25R
PHILADELPHIA   CLOUDY    66  21  18 VRB5      30.26R
WILDWOOD NJ*   CLOUDY    54  34  47 E7        30.28R
ATLANTIC CITY  CLOUDY    56  34  43 SE8       30.26R
HENDERSON NC   CLOUDY    53  43  69 NE6       30.19S
GREENSBORO     CLOUDY    60  40  47 NE10      30.17R
ROCKY MOUNT    CLOUDY    52  43  71 NE18G25   30.18R
FAYETTEVILLE   CLOUDY    51  49  92 NE17      30.12R FOG
CHARLOTTE      HVY RAIN  50  50 100 N10       30.16S FOG
$$

VAZ100-192300-
MARINE

STATION/POSITION TIME  TEMP    WIND        PRES    WAVE   SWELL
                       AIR SEA DIR/SP/G            HT/PER HT/PER
                 (UTC) (F)     (DEG/KT/KT) (MB)    (FT/S) (FT/S)
44066 TX TWR #4  2200   46 46  300/  4/  4 1024.6R   4/10   5/10
CAPE MAY NJ      2200   54 54  100/  6/ 10 1024.4R
LEWES DE         2200   54 49  110/  9/ 11 1023.7R
15NM E FENWICK I 2200   49 48              1024.4R   5/10
OCEAN-CITY-INLET 2200   52 50   50/  2/  5 1024.0S
WACHAPREAGUE VA  2200   54 54   60/ 10/ 12 1023.0S
THOMAS POINT MD  2200   60 55   50/  8/  9 1024.4R
GOOSES REEF MD   2200   56     280/  4/  6 1025.0R
COVE POINT MD    2200   60     350/  6/  7 1023.3F
SOLOMONS ISLAND  2200      53                N/A
BISHOPS HEAD MD  2200   60 57   90/  5/  7 1023.1S
PINEY POINT MD   2200          120/  3/  4   N/A
POTOMAC MD       2200   56     210/  2/  4 1022.8R
CAMBRIDGE MD     2200   63 55  310/  4/  5 1023.0S
LEWISETTA VA     2200   60 54  340/  4/  5 1023.1R
RAPPAHANNOCK LGT 2200           70/ 10/ 11 1023.6S
STINGRAY PT      2200   54      40/  6/  8 1023.4R
YORK RVR RNG VA  2200   53      50/  9/ 10 1022.5F
YORKTOWN VA      2200   55 54   90/  8/  8 1023.0F
JAMESTOWN VA     2200   57     120/  4/  6   N/A
DOMINION TERM VA 2200   54      30/  4/  6 1023.2R
KIPTOPEKE VA     2200      52   60/  6/ 11   N/A
CHES BAY BRIDGE  2200   50 51   30/ 12/ 16 1022.9R
CAPE HENRY VA    2200   48      30/ 13/ 14   N/A
CHESAPEAKE LGHT  2100   46      40/ 16/ 17 1023.1R
WILLOUBY STN VA  2200   52      50/ 13/ 15 1022.4R
S CRANEY ISL VA  2200           20/  9/ 12 1023.3R
CAPE HENRY BUOY  2200      47                N/A     4/ 9   2/11
1ST LANDING BUOY 2200      46                N/A     4/ 9   3/ 9
64NM E OF VA BCH 2200   50 48   20/ 16/ 17 1021.0R   6/11   5/11
DUCK PIER NC     2200   48 49   20/ 18/ 21 1020.7S
44100 DUCK FRF   2200      48                N/A     6/ 8   2/11
44056 DUCK FRF   2200      47                N/A     6/ 5   2/11
OREGON INLET NC  2200   49 52  360/ 11/ 14 1020.4R
HATTERAS NC      2200   54 56   30/ 15/ 22 1019.3R
CAPE LOOKOUT NC  2100   57      20/ 28/ 33 1017.1F
FRYING PAN SHLS  2200   63 65   60/ 29/ 35 1012.9R  11/ 7
$$



USA.gov is the U.S. government's official web portal to all federal, state and local government web resources and services.